When you browse on this site, cookies collect data to enhance your experience and personalize the content and advertising you see.
Visit our Privacy Policy to learn more. By continuing to use the site, you agree to this use of cookies and data.
  • In Österreich
  • Länderverzeichnis
  • Für 7 Tage
  • Wassertemperatur
  • Wetterkarte
  • News
  • Widgets
  • user-avatar
    Anmelden

    Stündliche Wetter Tarin Kowt

    Heute, 20 Februar, Donnerstag

    Zeit Temperatur Niederschläge Wind Luftdruck Luftfeuchtigkeit
    00:00 +3°C° 0 mm 2 m/S 617 mmHg 50%
    01:00 +2°C° 0 mm 2 m/S 617 mmHg 52%
    02:00 0°C° 0 mm 3 m/S 617 mmHg 52%
    03:00 0°C° 0 mm 3 m/S 616 mmHg 52%
    04:00 -1°C° 0 mm 3 m/S 616 mmHg 54%
    05:00 -1°C° 0 mm 3 m/S 616 mmHg 52%
    06:00 -1°C° 0 mm 3 m/S 616 mmHg 49%
    07:00 -1°C° 0 mm 3 m/S 616 mmHg 47%
    08:00 0°C° 0 mm 3 m/S 617 mmHg 40%
    09:00 +1°C° 0 mm 3 m/S 617 mmHg 32%
    10:00 +3°C° 0 mm 3 m/S 617 mmHg 26%
    11:00 +4°C° 0 mm 3 m/S 617 mmHg 24%
    12:00 +7°C° 0 mm 2 m/S 617 mmHg 22%
    13:00 +8°C° 0 mm 2 m/S 617 mmHg 20%
    14:00 +8°C° 0 mm 2 m/S 617 mmHg 20%
    15:00 +10°C° 0 mm 1 m/S 617 mmHg 20%
    16:00 +10°C° 0 mm 1 m/S 618 mmHg 20%
    17:00 +9°C° 0 mm 1 m/S 618 mmHg 25%
    18:00 +8°C° 0 mm 1 m/S 618 mmHg 31%
    19:00 +7°C° 0 mm 1 m/S 618 mmHg 36%
    20:00 +7°C° 0 mm 1 m/S 618 mmHg 37%
    21:00 +5°C° 0 mm 2 m/S 618 mmHg 37%
    22:00 +5°C° 0 mm 2 m/S 618 mmHg 37%
    23:00 +5°C° 0 mm 2 m/S 618 mmHg 38%

    Morgen, 21 Februar, Freitag

    Zeit Temperatur Niederschläge Wind Luftdruck Luftfeuchtigkeit
    00:00 +4°C° 0 mm 2 m/S 618 mmHg 39%
    01:00 +4°C° 0 mm 2 m/S 617 mmHg 40%
    02:00 +4°C° 0 mm 2 m/S 617 mmHg 42%
    03:00 +4°C° 0 mm 2 m/S 617 mmHg 43%
    04:00 +4°C° 0 mm 2 m/S 617 mmHg 44%
    05:00 +4°C° 0 mm 2 m/S 617 mmHg 44%
    06:00 +4°C° 0 mm 2 m/S 618 mmHg 43%
    07:00 +3°C° 0 mm 3 m/S 618 mmHg 42%
    08:00 +5°C° 0 mm 3 m/S 618 mmHg 38%
    09:00 +7°C° 0 mm 3 m/S 619 mmHg 33%
    10:00 +8°C° 0 mm 3 m/S 619 mmHg 28%
    17:00 +13°C° 0 mm 2 m/S 619 mmHg 29%
    18:00 +12°C° 0 mm 2 m/S 620 mmHg 34%
    19:00 +10°C° 0 mm 2 m/S 620 mmHg 39%
    20:00 +9°C° 0 mm 2 m/S 620 mmHg 39%
    21:00 +9°C° 0 mm 2 m/S 620 mmHg 40%
    22:00 +9°C° 0 mm 2 m/S 620 mmHg 41%
    23:00 +9°C° 0 mm 2 m/S 620 mmHg 42%

    übermorgen, 22 Februar, Samstag

    Zeit Temperatur Niederschläge Wind Luftdruck Luftfeuchtigkeit
    00:00 +8°C° 0 mm 2 m/S 620 mmHg 42%
    01:00 +8°C° 0 mm 2 m/S 620 mmHg 43%
    02:00 +8°C° 0 mm 2 m/S 620 mmHg 44%
    03:00 +7°C° 0 mm 2 m/S 619 mmHg 45%
    04:00 +7°C° 0 mm 2 m/S 619 mmHg 45%
    05:00 +7°C° 0 mm 2 m/S 619 mmHg 46%
    06:00 +7°C° 0 mm 2 m/S 620 mmHg 47%
    07:00 +6°C° 0 mm 2 m/S 620 mmHg 48%
    08:00 +8°C° 0 mm 2 m/S 621 mmHg 45%
    09:00 +9°C° 0 mm 2 m/S 621 mmHg 41%
    10:00 +12°C° 0 mm 2 m/S 622 mmHg 37%
    11:00 +13°C° 0 mm 2 m/S 622 mmHg 36%
    12:00 +14°C° 0 mm 2 m/S 621 mmHg 35%
    13:00 +15°C° 0 mm 2 m/S 621 mmHg 34%
    14:00 +15°C° 0 mm 1 m/S 621 mmHg 33%
    15:00 +15°C° 0 mm 1 m/S 621 mmHg 33%
    16:00 +15°C° 0 mm 1 m/S 621 mmHg 33%
    17:00 +14°C° 0 mm 1 m/S 621 mmHg 39%
    18:00 +13°C° 0 mm 1 m/S 621 mmHg 44%
    19:00 +12°C° 0 mm 1 m/S 621 mmHg 50%
    20:00 +11°C° 0 mm 1 m/S 621 mmHg 51%
    21:00 +11°C° 0 mm 1 m/S 621 mmHg 52%
    22:00 +9°C° 0 mm 2 m/S 620 mmHg 53%
    23:00 +9°C° 0 mm 2 m/S 620 mmHg 54%

    23 Februar, Sonntag

    Zeit Temperatur Niederschläge Wind Luftdruck Luftfeuchtigkeit
    00:00 +8°C° 0 mm 2 m/S 620 mmHg 56%
    01:00 +8°C° 0 mm 2 m/S 619 mmHg 57%
    02:00 +7°C° 0 mm 2 m/S 619 mmHg 58%
    03:00 +7°C° 0 mm 2 m/S 618 mmHg 59%
    04:00 +6°C° 0 mm 2 m/S 618 mmHg 60%
    05:00 +6°C° 0 mm 2 m/S 618 mmHg 59%
    06:00 +6°C° 0 mm 2 m/S 618 mmHg 59%
    07:00 +6°C° 0 mm 2 m/S 619 mmHg 58%
    08:00 +7°C° 0 mm 2 m/S 619 mmHg 53%
    09:00 +9°C° 0 mm 2 m/S 620 mmHg 47%
    10:00 +10°C° 0 mm 2 m/S 620 mmHg 41%
    11:00 +12°C° 0 mm 2 m/S 620 mmHg 39%
    12:00 +13°C° 0 mm 2 m/S 620 mmHg 37%
    13:00 +15°C° 0 mm 1 m/S 620 mmHg 34%
    14:00 +15°C° 0 mm 1 m/S 620 mmHg 34%
    15:00 +15°C° 0 mm 1 m/S 619 mmHg 33%
    16:00 +15°C° 0 mm 1 m/S 619 mmHg 33%
    17:00 +14°C° 0 mm 1 m/S 619 mmHg 38%
    18:00 +13°C° 0 mm 1 m/S 619 mmHg 43%
    19:00 +12°C° 0 mm 1 m/S 619 mmHg 48%
    20:00 +12°C° 0 mm 1 m/S 619 mmHg 49%
    21:00 +11°C° 0 mm 1 m/S 619 mmHg 50%
    22:00 +10°C° 0 mm 1 m/S 618 mmHg 51%
    23:00 +10°C° 0 mm 1 m/S 618 mmHg 51%

    24 Februar, Montag

    Zeit Temperatur Niederschläge Wind Luftdruck Luftfeuchtigkeit
    00:00 +8°C° 0 mm 2 m/S 618 mmHg 52%
    01:00 +8°C° 0 mm 2 m/S 617 mmHg 53%
    02:00 +7°C° 0 mm 2 m/S 617 mmHg 53%
    03:00 +7°C° 0 mm 2 m/S 617 mmHg 54%
    04:00 +6°C° 0 mm 2 m/S 616 mmHg 54%
    05:00 +6°C° 0 mm 2 m/S 617 mmHg 55%
    06:00 +6°C° 0 mm 2 m/S 617 mmHg 55%
    07:00 +6°C° 0 mm 2 m/S 618 mmHg 55%
    08:00 +8°C° 0 mm 2 m/S 618 mmHg 50%
    09:00 +9°C° 0 mm 2 m/S 619 mmHg 44%
    10:00 +12°C° 0 mm 2 m/S 619 mmHg 39%
    11:00 +13°C° 0 mm 2 m/S 619 mmHg 37%
    12:00 +13°C° 0 mm 2 m/S 619 mmHg 34%
    13:00 +14°C° 0 mm 1 m/S 619 mmHg 32%
    14:00 +15°C° 0 mm 1 m/S 618 mmHg 31%
    15:00 +15°C° 0 mm 1 m/S 618 mmHg 30%
    16:00 +15°C° 0 mm 1 m/S 618 mmHg 29%
    17:00 +14°C° 0 mm 1 m/S 618 mmHg 35%
    18:00 +13°C° 0 mm 1 m/S 618 mmHg 42%
    19:00 +11°C° 0 mm 0 m/S 618 mmHg 48%
    20:00 +11°C° 0 mm 0 m/S 618 mmHg 49%
    21:00 +10°C° 0 mm 0 m/S 618 mmHg 50%
    22:00 +9°C° 0 mm 0 m/S 618 mmHg 51%
    23:00 +10°C° 0 mm 1 m/S 618 mmHg 51%

    25 Februar, Dienstag

    Zeit Temperatur Niederschläge Wind Luftdruck Luftfeuchtigkeit
    00:00 +10°C° 0 mm 1 m/S 618 mmHg 51%
    01:00 +9°C° 0 mm 1 m/S 618 mmHg 52%
    02:00 +9°C° 0 mm 1 m/S 617 mmHg 52%
    03:00 +7°C° 0 mm 2 m/S 617 mmHg 52%
    04:00 +7°C° 0 mm 2 m/S 617 mmHg 52%
    05:00 +7°C° 0 mm 2 m/S 617 mmHg 52%
    06:00 +7°C° 0 mm 2 m/S 617 mmHg 52%
    07:00 +7°C° 0 mm 2 m/S 617 mmHg 52%
    08:00 +8°C° 0 mm 2 m/S 618 mmHg 47%
    09:00 +10°C° 0 mm 2 m/S 618 mmHg 41%
    10:00 +12°C° 0 mm 2 m/S 619 mmHg 35%
    11:00 +13°C° 0 mm 2 m/S 619 mmHg 33%
    12:00 +14°C° 0 mm 2 m/S 618 mmHg 31%
    13:00 +15°C° 0 mm 1 m/S 618 mmHg 29%
    14:00 +15°C° 0 mm 1 m/S 618 mmHg 29%
    15:00 +16°C° 0 mm 1 m/S 618 mmHg 29%
    16:00 +16°C° 0 mm 1 m/S 618 mmHg 29%
    17:00 +15°C° 0 mm 1 m/S 618 mmHg 33%
    18:00 +14°C° 0 mm 1 m/S 618 mmHg 38%
    19:00 +14°C° 0 mm 1 m/S 618 mmHg 43%
    20:00 +13°C° 0 mm 1 m/S 618 mmHg 43%
    21:00 +13°C° 0 mm 1 m/S 618 mmHg 44%
    22:00 +13°C° 0 mm 2 m/S 618 mmHg 44%
    23:00 +12°C° 0 mm 2 m/S 618 mmHg 44%
    Mehr zeigen